Time,TemperatureF,DewpointF,PressureIn,WindDirection,WindDirectionDegrees,WindSpeedMPH,WindSpeedGustMPH,Humidity,HourlyPrecipIn,Conditions,Clouds,dailyrainin,SoftwareType,DateUTC
2013-06-09 00:00:00,62.6,60.8,30.41,North,0,0.0,-999.9,94,-99.99,,,-99.99,,2013-06-09 04:00:00,
2013-06-09 00:02:00,62.6,60.8,30.41,North,0,0.0,-999.9,94,-99.99,,,-99.99,,2013-06-09 04:02:00,
2013-06-09 00:04:00,62.6,60.8,30.41,North,0,0.0,-999.9,94,-99.99,,,-99.99,,2013-06-09 04:04:00,
2013-06-09 00:10:00,62.6,60.8,30.41,North,0,0.0,-999.9,94,-99.99,,,-99.99,,2013-06-09 04:10:00,
2013-06-09 00:12:00,62.6,60.8,30.41,North,0,0.0,-999.9,94,-99.99,,,-99.99,,2013-06-09 04:12:00,
2013-06-09 00:14:00,62.6,60.8,30.41,North,0,0.0,-999.9,94,-99.99,,,-99.99,,2013-06-09 04:14:00,
2013-06-09 00:20:00,62.6,60.8,30.41,North,0,0.0,-999.9,94,-99.99,,,-99.99,,2013-06-09 04:20:00,
2013-06-09 00:26:00,62.6,60.8,30.42,North,0,0.0,-999.9,94,-99.99,,,-99.99,,2013-06-09 04:26:00,
2013-06-09 00:32:00,62.6,60.8,30.42,North,0,0.0,-999.9,94,-99.99,,,-99.99,,2013-06-09 04:32:00,
2013-06-09 00:38:00,62.6,60.8,30.42,North,0,0.0,-999.9,94,-99.99,,,-99.99,,2013-06-09 04:38:00,
2013-06-09 00:44:00,62.6,60.8,30.42,North,0,0.0,-999.9,94,-99.99,,,-99.99,,2013-06-09 04:44:00,
2013-06-09 00:50:00,62.6,60.8,30.42,North,0,0.0,-999.9,94,-99.99,,,-99.99,,2013-06-09 04:50:00,
2013-06-09 00:56:00,62.6,60.8,30.42,North,0,0.0,-999.9,94,-99.99,,,-99.99,,2013-06-09 04:56:00,
2013-06-09 01:02:00,62.6,60.8,30.42,NNW,346,1.2,-999.9,94,-99.99,,,-99.99,,2013-06-09 05:02:00,
2013-06-09 01:08:00,62.6,60.8,30.42,NNW,346,1.2,-999.9,94,-99.99,,,-99.99,,2013-06-09 05:08:00,
2013-06-09 01:14:00,62.6,60.8,30.43,North,0,0.0,-999.9,94,-99.99,,,-99.99,,2013-06-09 05:14:00,
2013-06-09 01:20:00,62.6,60.8,30.43,North,0,0.0,-999.9,94,-99.99,,,-99.99,,2013-06-09 05:20:00,
2013-06-09 01:32:00,62.6,60.8,30.43,North,0,0.0,-999.9,94,-99.99,,,-99.99,,2013-06-09 05:32:00,
2013-06-09 01:38:00,62.6,60.8,30.43,North,0,0.0,-999.9,94,-99.99,,,-99.99,,2013-06-09 05:38:00,
2013-06-09 01:52:00,60.8,59.0,30.43,North,0,0.0,-999.9,94,-99.99,,,-99.99,,2013-06-09 05:52:00,
2013-06-09 01:58:00,60.8,59.0,30.43,North,0,0.0,-999.9,94,-99.99,,,-99.99,,2013-06-09 05:58:00,
2013-06-09 02:04:00,60.8,59.0,30.44,NNW,336,3.5,-999.9,94,-99.99,,,-99.99,,2013-06-09 06:04:00,
2013-06-09 02:10:00,60.8,59.0,30.44,NNW,336,3.5,-999.9,94,-99.99,,,-99.99,,2013-06-09 06:10:00,
2013-06-09 02:16:00,60.8,59.0,30.44,North,0,0.0,-999.9,94,-99.99,,,-99.99,,2013-06-09 06:16:00,
2013-06-09 02:22:00,60.8,59.0,30.43,NW,326,0.0,-999.9,94,-99.99,,,-99.99,,2013-06-09 06:22:00,
2013-06-09 02:28:00,60.8,59.0,30.43,NW,326,0.0,-999.9,94,-99.99,,,-99.99,,2013-06-09 06:28:00,
2013-06-09 02:34:00,60.8,59.0,30.44,NNW,345,3.5,-999.9,94,-99.99,,,-99.99,,2013-06-09 06:34:00,
2013-06-09 02:40:00,60.8,59.0,30.44,NNW,345,3.5,-999.9,94,-99.99,,,-99.99,,2013-06-09 06:40:00,
2013-06-09 02:46:00,60.8,59.0,30.44,NNW,345,3.5,-999.9,94,-99.99,,,-99.99,,2013-06-09 06:46:00,
2013-06-09 02:52:00,60.8,59.0,30.44,NNW,329,0.0,-999.9,94,-99.99,,,-99.99,,2013-06-09 06:52:00,
2013-06-09 02:58:00,60.8,59.0,30.44,NNW,329,0.0,-999.9,94,-99.99,,,-99.99,,2013-06-09 06:58:00,
2013-06-09 03:04:00,60.8,60.8,30.44,North,0,0.0,-999.9,100,-99.99,,,-99.99,,2013-06-09 07:04:00,
2013-06-09 03:10:00,60.8,60.8,30.44,North,0,0.0,-999.9,100,-99.99,,,-99.99,,2013-06-09 07:10:00,
2013-06-09 03:16:00,60.8,59.0,30.44,NNW,333,2.3,-999.9,94,-99.99,,,-99.99,,2013-06-09 07:16:00,
2013-06-09 03:22:00,59.0,57.2,30.44,North,0,0.0,-999.9,94,-99.99,,,-99.99,,2013-06-09 07:22:00,
2013-06-09 03:28:00,59.0,57.2,30.44,North,0,0.0,-999.9,94,-99.99,,,-99.99,,2013-06-09 07:28:00,
2013-06-09 03:34:00,60.8,60.8,30.45,North,0,0.0,-999.9,100,-99.99,,,-99.99,,2013-06-09 07:34:00,
2013-06-09 03:40:00,60.8,60.8,30.45,North,0,0.0,-999.9,100,-99.99,,,-99.99,,2013-06-09 07:40:00,
2013-06-09 03:46:00,60.8,59.0,30.45,North,0,0.0,-999.9,94,-99.99,,,-99.99,,2013-06-09 07:46:00,
2013-06-09 03:52:00,59.0,59.0,30.45,North,0,0.0,-999.9,100,-99.99,,,-99.99,,2013-06-09 07:52:00,
2013-06-09 03:58:00,59.0,59.0,30.45,North,0,0.0,-999.9,100,-99.99,,,-99.99,,2013-06-09 07:58:00,
2013-06-09 04:04:00,59.0,59.0,30.44,North,0,0.0,-999.9,100,-99.99,,,-99.99,,2013-06-09 08:04:00,
2013-06-09 04:10:00,59.0,59.0,30.44,North,0,0.0,-999.9,100,-99.99,,,-99.99,,2013-06-09 08:10:00,
2013-06-09 04:16:00,59.0,59.0,30.45,North,0,0.0,-999.9,100,-99.99,,,-99.99,,2013-06-09 08:16:00,
2013-06-09 04:22:00,59.0,57.2,30.45,North,0,0.0,-999.9,94,-99.99,,,-99.99,,2013-06-09 08:22:00,
2013-06-09 04:28:00,59.0,57.2,30.45,North,0,0.0,-999.9,94,-99.99,,,-99.99,,2013-06-09 08:28:00,
2013-06-09 04:34:00,59.0,59.0,30.45,North,0,0.0,-999.9,100,-99.99,,,-99.99,,2013-06-09 08:34:00,
2013-06-09 04:40:00,59.0,59.0,30.45,North,0,0.0,-999.9,100,-99.99,,,-99.99,,2013-06-09 08:40:00,
2013-06-09 04:46:00,59.0,59.0,30.46,North,0,0.0,-999.9,100,-99.99,,,-99.99,,2013-06-09 08:46:00,
2013-06-09 04:52:00,59.0,59.0,30.45,North,0,0.0,-999.9,100,-99.99,,,-99.99,,2013-06-09 08:52:00,
2013-06-09 04:58:00,59.0,59.0,30.45,North,0,0.0,-999.9,100,-99.99,,,-99.99,,2013-06-09 08:58:00,
2013-06-09 05:04:00,59.0,59.0,30.46,North,0,0.0,-999.9,100,-99.99,,,-99.99,,2013-06-09 09:04:00,
2013-06-09 05:10:00,59.0,59.0,30.46,North,0,0.0,-999.9,100,-99.99,,,-99.99,,2013-06-09 09:10:00,
2013-06-09 05:16:00,59.0,59.0,30.47,North,0,0.0,-999.9,100,-99.99,,,-99.99,,2013-06-09 09:16:00,
2013-06-09 05:22:00,59.0,59.0,30.47,North,0,0.0,-999.9,100,-99.99,,,-99.99,,2013-06-09 09:22:00,
2013-06-09 05:28:00,59.0,59.0,30.47,North,0,0.0,-999.9,100,-99.99,,,-99.99,,2013-06-09 09:28:00,
2013-06-09 05:34:00,57.2,57.2,30.48,North,0,0.0,-999.9,100,-99.99,,,-99.99,,2013-06-09 09:34:00,
2013-06-09 05:40:00,57.2,57.2,30.48,North,0,0.0,-999.9,100,-99.99,,,-99.99,,2013-06-09 09:40:00,
2013-06-09 05:46:00,57.2,57.2,30.49,North,0,0.0,-999.9,100,-99.99,,,-99.99,,2013-06-09 09:46:00,
2013-06-09 05:52:00,57.2,57.2,30.50,North,0,0.0,-999.9,100,-99.99,,,-99.99,,2013-06-09 09:52:00,
2013-06-09 05:58:00,57.2,57.2,30.50,North,0,0.0,-999.9,100,-99.99,,,-99.99,,2013-06-09 09:58:00,
2013-06-09 06:04:00,57.2,57.2,30.50,North,353,0.0,-999.9,100,-99.99,,,-99.99,,2013-06-09 10:04:00,
2013-06-09 06:10:00,57.2,57.2,30.50,North,353,0.0,-999.9,100,-99.99,,,-99.99,,2013-06-09 10:10:00,
2013-06-09 06:16:00,57.2,57.2,30.50,North,0,0.0,-999.9,100,-99.99,,,-99.99,,2013-06-09 10:16:00,
2013-06-09 06:22:00,59.0,59.0,30.51,North,0,0.0,-999.9,100,-99.99,,,-99.99,,2013-06-09 10:22:00,
2013-06-09 06:28:00,59.0,59.0,30.51,North,0,0.0,-999.9,100,-99.99,,,-99.99,,2013-06-09 10:28:00,
2013-06-09 06:34:00,59.0,59.0,30.50,North,0,0.0,-999.9,100,-99.99,,,-99.99,,2013-06-09 10:34:00,
2013-06-09 06:40:00,59.0,59.0,30.50,North,0,0.0,-999.9,100,-99.99,,,-99.99,,2013-06-09 10:40:00,
2013-06-09 06:46:00,60.8,59.0,30.50,North,0,0.0,-999.9,94,-99.99,,,-99.99,,2013-06-09 10:46:00,
2013-06-09 06:52:00,60.8,59.0,30.50,North,0,0.0,-999.9,94,-99.99,,,-99.99,,2013-06-09 10:52:00,
2013-06-09 06:58:00,60.8,59.0,30.50,North,0,0.0,-999.9,94,-99.99,,,-99.99,,2013-06-09 10:58:00,
2013-06-09 07:04:00,62.6,60.8,30.50,NNE,30,1.2,-999.9,94,-99.99,,,-99.99,,2013-06-09 11:04:00,
2013-06-09 07:10:00,62.6,60.8,30.50,NNE,30,1.2,-999.9,94,-99.99,,,-99.99,,2013-06-09 11:10:00,
2013-06-09 07:16:00,62.6,59.0,30.50,NNE,21,0.0,-999.9,88,-99.99,,,-99.99,,2013-06-09 11:16:00,
2013-06-09 07:22:00,64.4,60.8,30.50,North,0,0.0,-999.9,88,-99.99,,,-99.99,,2013-06-09 11:22:00,
2013-06-09 07:28:00,64.4,60.8,30.50,North,0,0.0,-999.9,88,-99.99,,,-99.99,,2013-06-09 11:28:00,
2013-06-09 07:34:00,64.4,59.0,30.50,NNE,33,0.0,-999.9,83,-99.99,,,-99.99,,2013-06-09 11:34:00,
2013-06-09 07:40:00,64.4,59.0,30.50,NNE,33,0.0,-999.9,83,-99.99,,,-99.99,,2013-06-09 11:40:00,
2013-06-09 07:46:00,66.2,60.8,30.50,North,11,3.5,-999.9,83,-99.99,,,-99.99,,2013-06-09 11:46:00,
2013-06-09 07:52:00,64.4,59.0,30.50,North,11,5.8,-999.9,83,-99.99,,,-99.99,,2013-06-09 11:52:00,
2013-06-09 07:58:00,64.4,59.0,30.50,North,11,5.8,-999.9,83,-99.99,,,-99.99,,2013-06-09 11:58:00,
2013-06-09 08:04:00,66.2,60.8,30.50,NE,52,2.3,-999.9,83,-99.99,,,-99.99,,2013-06-09 12:04:00,
2013-06-09 08:10:00,66.2,60.8,30.50,NE,52,2.3,-999.9,83,-99.99,,,-99.99,,2013-06-09 12:10:00,
2013-06-09 08:16:00,68.0,60.8,30.50,NNE,30,1.2,-999.9,78,-99.99,,,-99.99,,2013-06-09 12:16:00,
2013-06-09 08:22:00,68.0,60.8,30.50,NE,52,1.2,-999.9,78,-99.99,,,-99.99,,2013-06-09 12:22:00,
2013-06-09 08:28:00,68.0,60.8,30.50,NE,52,1.2,-999.9,78,-99.99,,,-99.99,,2013-06-09 12:28:00,
2013-06-09 08:34:00,69.8,60.8,30.50,ENE,68,1.2,-999.9,73,-99.99,,,-99.99,,2013-06-09 12:34:00,
2013-06-09 08:40:00,69.8,60.8,30.50,ENE,68,1.2,-999.9,73,-99.99,,,-99.99,,2013-06-09 12:40:00,
2013-06-09 08:46:00,69.8,59.0,30.50,SE,132,0.0,-999.9,68,-99.99,,,-99.99,,2013-06-09 12:46:00,
2013-06-09 08:52:00,71.6,60.8,30.50,ENE,57,0.0,-999.9,69,-99.99,,,-99.99,,2013-06-09 12:52:00,
2013-06-09 08:58:00,71.6,60.8,30.50,ENE,57,0.0,-999.9,69,-99.99,,,-99.99,,2013-06-09 12:58:00,
2013-06-09 09:04:00,71.6,57.2,30.50,SSE,156,2.3,-999.9,60,-99.99,,,-99.99,,2013-06-09 13:04:00,
2013-06-09 09:10:00,71.6,57.2,30.50,SSE,156,2.3,-999.9,60,-99.99,,,-99.99,,2013-06-09 13:10:00,
2013-06-09 09:16:00,73.4,57.2,30.50,East,89,4.6,-999.9,57,-99.99,,,-99.99,,2013-06-09 13:16:00,
2013-06-09 09:22:00,73.4,57.2,30.50,North,0,0.0,-999.9,57,-99.99,,,-99.99,,2013-06-09 13:22:00,
2013-06-09 09:28:00,73.4,57.2,30.50,North,0,0.0,-999.9,57,-99.99,,,-99.99,,2013-06-09 13:28:00,
2013-06-09 09:34:00,73.4,57.2,30.50,SE,139,2.3,-999.9,57,-99.99,,,-99.99,,2013-06-09 13:34:00,
2013-06-09 09:40:00,73.4,57.2,30.50,SE,139,2.3,-999.9,57,-99.99,,,-99.99,,2013-06-09 13:40:00,
2013-06-09 09:46:00,75.2,57.2,30.50,SSE,152,3.5,-999.9,53,-99.99,,,-99.99,,2013-06-09 13:46:00,
2013-06-09 09:52:00,75.2,57.2,30.49,East,95,3.5,-999.9,53,-99.99,,,-99.99,,2013-06-09 13:52:00,
2013-06-09 09:58:00,75.2,57.2,30.49,East,95,3.5,-999.9,53,-99.99,,,-99.99,,2013-06-09 13:58:00,
2013-06-09 10:04:00,75.2,55.4,30.49,ENE,67,3.5,-999.9,50,-99.99,,,-99.99,,2013-06-09 14:04:00,
2013-06-09 10:10:00,75.2,55.4,30.49,ENE,67,3.5,-999.9,50,-99.99,,,-99.99,,2013-06-09 14:10:00,
2013-06-09 10:16:00,75.2,55.4,30.49,ENE,67,3.5,-999.9,50,-99.99,,,-99.99,,2013-06-09 14:16:00,
2013-06-09 10:22:00,75.2,55.4,30.49,NE,42,2.3,-999.9,50,-99.99,,,-99.99,,2013-06-09 14:22:00,
2013-06-09 10:28:00,75.2,55.4,30.49,NE,42,2.3,-999.9,50,-99.99,,,-99.99,,2013-06-09 14:28:00,
2013-06-09 10:34:00,77.0,55.4,30.49,North,7,1.2,-999.9,47,-99.99,,,-99.99,,2013-06-09 14:34:00,
2013-06-09 10:40:00,77.0,55.4,30.49,North,7,1.2,-999.9,47,-99.99,,,-99.99,,2013-06-09 14:40:00,
2013-06-09 10:46:00,77.0,55.4,30.49,ENE,72,1.2,-999.9,47,-99.99,,,-99.99,,2013-06-09 14:46:00,
2013-06-09 10:52:00,77.0,55.4,30.49,ENE,72,1.2,-999.9,47,-99.99,,,-99.99,,2013-06-09 14:52:00,
2013-06-09 10:58:00,77.0,55.4,30.49,ENE,72,1.2,-999.9,47,-99.99,,,-99.99,,2013-06-09 14:58:00,
2013-06-09 11:04:00,78.8,55.4,30.48,North,10,2.3,-999.9,44,-99.99,,,-99.99,,2013-06-09 15:04:00,
2013-06-09 11:10:00,78.8,55.4,30.48,North,10,2.3,-999.9,44,-99.99,,,-99.99,,2013-06-09 15:10:00,
2013-06-09 11:16:00,78.8,55.4,30.48,NE,46,2.3,-999.9,44,-99.99,,,-99.99,,2013-06-09 15:16:00,
2013-06-09 11:22:00,77.0,55.4,30.48,SE,130,2.3,-999.9,47,-99.99,,,-99.99,,2013-06-09 15:22:00,
2013-06-09 11:28:00,77.0,55.4,30.48,SE,130,2.3,-999.9,47,-99.99,,,-99.99,,2013-06-09 15:28:00,
2013-06-09 11:34:00,77.0,55.4,30.48,ENE,70,4.6,-999.9,47,-99.99,,,-99.99,,2013-06-09 15:34:00,
2013-06-09 11:40:00,77.0,55.4,30.48,ENE,70,4.6,-999.9,47,-99.99,,,-99.99,,2013-06-09 15:40:00,
2013-06-09 11:46:00,78.8,55.4,30.48,West,260,2.3,-999.9,44,-99.99,,,-99.99,,2013-06-09 15:46:00,
2013-06-09 11:52:00,78.8,53.6,30.48,NNE,13,4.6,-999.9,42,-99.99,,,-99.99,,2013-06-09 15:52:00,
2013-06-09 11:58:00,78.8,53.6,30.48,NNE,13,4.6,-999.9,42,-99.99,,,-99.99,,2013-06-09 15:58:00,
2013-06-09 12:04:00,78.8,55.4,30.48,SE,141,4.6,-999.9,44,-99.99,,,-99.99,,2013-06-09 16:04:00,
2013-06-09 12:10:00,78.8,55.4,30.48,SE,141,4.6,-999.9,44,-99.99,,,-99.99,,2013-06-09 16:10:00,
2013-06-09 12:16:00,78.8,55.4,30.47,North,6,3.5,-999.9,44,-99.99,,,-99.99,,2013-06-09 16:16:00,
2013-06-09 12:22:00,78.8,53.6,30.48,East,89,2.3,-999.9,42,-99.99,,,-99.99,,2013-06-09 16:22:00,
2013-06-09 12:28:00,78.8,53.6,30.48,East,89,2.3,-999.9,42,-99.99,,,-99.99,,2013-06-09 16:28:00,
2013-06-09 12:34:00,78.8,53.6,30.48,East,89,2.3,-999.9,42,-99.99,,,-99.99,,2013-06-09 16:34:00,
2013-06-09 12:40:00,78.8,53.6,30.48,East,89,2.3,-999.9,42,-99.99,,,-99.99,,2013-06-09 16:40:00,
2013-06-09 12:46:00,80.6,55.4,30.47,NE,49,6.9,-999.9,42,-99.99,,,-99.99,,2013-06-09 16:46:00,
2013-06-09 12:52:00,80.6,53.6,30.47,East,98,5.8,-999.9,39,-99.99,,,-99.99,,2013-06-09 16:52:00,
2013-06-09 12:58:00,80.6,53.6,30.47,East,98,5.8,-999.9,39,-99.99,,,-99.99,,2013-06-09 16:58:00,
2013-06-09 13:04:00,80.6,55.4,30.47,SSE,147,11.5,-999.9,42,-99.99,,,-99.99,,2013-06-09 17:04:00,
2013-06-09 13:10:00,80.6,55.4,30.47,SSE,147,11.5,-999.9,42,-99.99,,,-99.99,,2013-06-09 17:10:00,
2013-06-09 13:16:00,80.6,55.4,30.47,ENE,72,0.0,-999.9,42,-99.99,,,-99.99,,2013-06-09 17:16:00,
2013-06-09 13:22:00,80.6,53.6,30.47,East,85,1.2,-999.9,39,-99.99,,,-99.99,,2013-06-09 17:22:00,
2013-06-09 13:28:00,80.6,53.6,30.47,East,85,1.2,-999.9,39,-99.99,,,-99.99,,2013-06-09 17:28:00,
2013-06-09 13:34:00,80.6,55.4,30.47,ESE,115,2.3,-999.9,42,-99.99,,,-99.99,,2013-06-09 17:34:00,
2013-06-09 13:40:00,80.6,55.4,30.47,ESE,115,2.3,-999.9,42,-99.99,,,-99.99,,2013-06-09 17:40:00,
2013-06-09 13:46:00,80.6,55.4,30.47,SSE,162,5.8,-999.9,42,-99.99,,,-99.99,,2013-06-09 17:46:00,
2013-06-09 13:52:00,80.6,55.4,30.47,ESE,122,6.9,-999.9,42,-99.99,,,-99.99,,2013-06-09 17:52:00,
2013-06-09 13:58:00,80.6,55.4,30.47,ESE,122,6.9,-999.9,42,-99.99,,,-99.99,,2013-06-09 17:58:00,
2013-06-09 14:04:00,82.4,55.4,30.47,SSE,161,2.3,-999.9,39,-99.99,,,-99.99,,2013-06-09 18:04:00,
2013-06-09 14:10:00,82.4,55.4,30.47,SSE,161,2.3,-999.9,39,-99.99,,,-99.99,,2013-06-09 18:10:00,
2013-06-09 14:16:00,82.4,57.2,30.46,North,0,0.0,-999.9,42,-99.99,,,-99.99,,2013-06-09 18:16:00,
2013-06-09 14:22:00,82.4,55.4,30.46,East,93,1.2,-999.9,39,-99.99,,,-99.99,,2013-06-09 18:22:00,
2013-06-09 14:28:00,82.4,55.4,30.46,East,93,1.2,-999.9,39,-99.99,,,-99.99,,2013-06-09 18:28:00,
2013-06-09 14:34:00,82.4,55.4,30.45,NNE,21,6.9,-999.9,39,-99.99,,,-99.99,,2013-06-09 18:34:00,
2013-06-09 14:40:00,82.4,55.4,30.45,NNE,21,6.9,-999.9,39,-99.99,,,-99.99,,2013-06-09 18:40:00,
2013-06-09 14:46:00,80.6,55.4,30.46,SSE,158,3.5,-999.9,42,-99.99,,,-99.99,,2013-06-09 18:46:00,
2013-06-09 14:52:00,80.6,55.4,30.46,SE,133,1.2,-999.9,42,-99.99,,,-99.99,,2013-06-09 18:52:00,
2013-06-09 14:58:00,80.6,55.4,30.46,SE,133,1.2,-999.9,42,-99.99,,,-99.99,,2013-06-09 18:58:00,
2013-06-09 15:04:00,80.6,55.4,30.46,ENE,70,1.2,-999.9,42,-99.99,,,-99.99,,2013-06-09 19:04:00,
2013-06-09 15:10:00,80.6,55.4,30.46,ENE,70,1.2,-999.9,42,-99.99,,,-99.99,,2013-06-09 19:10:00,
2013-06-09 15:16:00,82.4,55.4,30.45,SSE,153,4.6,-999.9,39,-99.99,,,-99.99,,2013-06-09 19:16:00,
2013-06-09 15:22:00,80.6,55.4,30.46,SE,143,4.6,-999.9,42,-99.99,,,-99.99,,2013-06-09 19:22:00,
2013-06-09 15:28:00,80.6,55.4,30.46,SE,143,4.6,-999.9,42,-99.99,,,-99.99,,2013-06-09 19:28:00,
2013-06-09 15:34:00,82.4,55.4,30.45,East,91,3.5,-999.9,39,-99.99,,,-99.99,,2013-06-09 19:34:00,
2013-06-09 15:40:00,82.4,55.4,30.45,East,91,3.5,-999.9,39,-99.99,,,-99.99,,2013-06-09 19:40:00,
2013-06-09 15:46:00,80.6,53.6,30.45,SSE,152,6.9,-999.9,39,-99.99,,,-99.99,,2013-06-09 19:46:00,
2013-06-09 15:52:00,80.6,57.2,30.45,North,355,2.3,-999.9,45,-99.99,,,-99.99,,2013-06-09 19:52:00,
2013-06-09 15:58:00,80.6,57.2,30.45,North,355,2.3,-999.9,45,-99.99,,,-99.99,,2013-06-09 19:58:00,
2013-06-09 16:04:00,80.6,57.2,30.45,SW,227,0.0,-999.9,45,-99.99,,,-99.99,,2013-06-09 20:04:00,
2013-06-09 16:10:00,80.6,57.2,30.45,SW,227,0.0,-999.9,45,-99.99,,,-99.99,,2013-06-09 20:10:00,
2013-06-09 16:16:00,80.6,57.2,30.45,NE,35,1.2,-999.9,45,-99.99,,,-99.99,,2013-06-09 20:16:00,
2013-06-09 16:22:00,80.6,57.2,30.45,NE,37,0.0,-999.9,45,-99.99,,,-99.99,,2013-06-09 20:22:00,
2013-06-09 16:28:00,80.6,57.2,30.45,NE,37,0.0,-999.9,45,-99.99,,,-99.99,,2013-06-09 20:28:00,
2013-06-09 16:34:00,80.6,55.4,30.44,NNE,31,2.3,-999.9,42,-99.99,,,-99.99,,2013-06-09 20:34:00,
2013-06-09 16:40:00,80.6,55.4,30.44,NNE,31,2.3,-999.9,42,-99.99,,,-99.99,,2013-06-09 20:40:00,
2013-06-09 16:46:00,80.6,59.0,30.44,North,0,0.0,-999.9,48,-99.99,,,-99.99,,2013-06-09 20:46:00,
2013-06-09 16:52:00,78.8,55.4,30.45,NNE,13,1.2,-999.9,44,-99.99,,,-99.99,,2013-06-09 20:52:00,
2013-06-09 16:58:00,78.8,55.4,30.45,NNE,13,1.2,-999.9,44,-99.99,,,-99.99,,2013-06-09 20:58:00,
2013-06-09 17:04:00,80.6,57.2,30.44,NNE,19,4.6,-999.9,45,-99.99,,,-99.99,,2013-06-09 21:04:00,
2013-06-09 17:10:00,80.6,57.2,30.44,NNE,19,4.6,-999.9,45,-99.99,,,-99.99,,2013-06-09 21:10:00,
2013-06-09 17:16:00,80.6,57.2,30.44,NNE,18,1.2,-999.9,45,-99.99,,,-99.99,,2013-06-09 21:16:00,
2013-06-09 17:22:00,80.6,55.4,30.44,North,3,1.2,-999.9,42,-99.99,,,-99.99,,2013-06-09 21:22:00,
2013-06-09 17:28:00,80.6,55.4,30.44,North,3,1.2,-999.9,42,-99.99,,,-99.99,,2013-06-09 21:28:00,
2013-06-09 17:34:00,80.6,55.4,30.44,ENE,76,1.2,-999.9,42,-99.99,,,-99.99,,2013-06-09 21:34:00,
2013-06-09 17:40:00,80.6,55.4,30.44,ENE,76,1.2,-999.9,42,-99.99,,,-99.99,,2013-06-09 21:40:00,
2013-06-09 17:46:00,80.6,53.6,30.44,SSE,156,2.3,-999.9,39,-99.99,,,-99.99,,2013-06-09 21:46:00,
2013-06-09 17:52:00,80.6,53.6,30.44,North,0,0.0,-999.9,39,-99.99,,,-99.99,,2013-06-09 21:52:00,
2013-06-09 17:58:00,80.6,53.6,30.44,North,0,0.0,-999.9,39,-99.99,,,-99.99,,2013-06-09 21:58:00,
2013-06-09 18:04:00,80.6,55.4,30.45,North,0,0.0,-999.9,42,-99.99,,,-99.99,,2013-06-09 22:04:00,
2013-06-09 18:10:00,80.6,55.4,30.45,North,0,0.0,-999.9,42,-99.99,,,-99.99,,2013-06-09 22:10:00,
2013-06-09 18:16:00,80.6,55.4,30.45,North,0,0.0,-999.9,42,-99.99,,,-99.99,,2013-06-09 22:16:00,
2013-06-09 18:22:00,78.8,55.4,30.45,North,0,0.0,-999.9,44,-99.99,,,-99.99,,2013-06-09 22:22:00,
2013-06-09 18:28:00,78.8,55.4,30.45,North,0,0.0,-999.9,44,-99.99,,,-99.99,,2013-06-09 22:28:00,
2013-06-09 18:34:00,78.8,53.6,30.45,East,89,0.0,-999.9,42,-99.99,,,-99.99,,2013-06-09 22:34:00,
2013-06-09 18:40:00,78.8,53.6,30.45,East,89,0.0,-999.9,42,-99.99,,,-99.99,,2013-06-09 22:40:00,
2013-06-09 18:46:00,78.8,57.2,30.45,North,0,0.0,-999.9,47,-99.99,,,-99.99,,2013-06-09 22:46:00,
2013-06-09 18:52:00,78.8,57.2,30.46,North,0,0.0,-999.9,47,-99.99,,,-99.99,,2013-06-09 22:52:00,
2013-06-09 18:58:00,78.8,57.2,30.46,North,0,0.0,-999.9,47,-99.99,,,-99.99,,2013-06-09 22:58:00,
2013-06-09 19:04:00,77.0,57.2,30.46,North,0,0.0,-999.9,50,-99.99,,,-99.99,,2013-06-09 23:04:00,
2013-06-09 19:10:00,77.0,57.2,30.46,North,0,0.0,-999.9,50,-99.99,,,-99.99,,2013-06-09 23:10:00,
2013-06-09 19:16:00,77.0,57.2,30.46,North,0,0.0,-999.9,50,-99.99,,,-99.99,,2013-06-09 23:16:00,
2013-06-09 19:22:00,77.0,57.2,30.47,North,0,0.0,-999.9,50,-99.99,,,-99.99,,2013-06-09 23:22:00,
2013-06-09 19:28:00,77.0,57.2,30.47,North,0,0.0,-999.9,50,-99.99,,,-99.99,,2013-06-09 23:28:00,
2013-06-09 19:34:00,77.0,57.2,30.47,North,0,0.0,-999.9,50,-99.99,,,-99.99,,2013-06-09 23:34:00,
2013-06-09 19:40:00,77.0,57.2,30.47,North,0,0.0,-999.9,50,-99.99,,,-99.99,,2013-06-09 23:40:00,
2013-06-09 19:46:00,75.2,59.0,30.47,North,0,0.0,-999.9,57,-99.99,,,-99.99,,2013-06-09 23:46:00,
2013-06-09 19:52:00,75.2,60.8,30.47,North,0,0.0,-999.9,61,-99.99,,,-99.99,,2013-06-09 23:52:00,
2013-06-09 19:58:00,75.2,60.8,30.47,North,0,0.0,-999.9,61,-99.99,,,-99.99,,2013-06-09 23:58:00,
2013-06-09 20:04:00,75.2,60.8,30.47,North,0,0.0,-999.9,61,-99.99,,,-99.99,,2013-06-10 00:04:00,
2013-06-09 20:10:00,75.2,60.8,30.47,North,0,0.0,-999.9,61,-99.99,,,-99.99,,2013-06-10 00:10:00,
2013-06-09 20:16:00,73.4,60.8,30.47,North,0,0.0,-999.9,65,-99.99,,,-99.99,,2013-06-10 00:16:00,
2013-06-09 21:12:00,69.8,62.6,30.50,North,0,0.0,-999.9,78,-99.99,,,-99.99,,2013-06-10 01:12:00,
2013-06-09 21:18:00,69.8,62.6,30.50,North,0,0.0,-999.9,78,-99.99,,,-99.99,,2013-06-10 01:18:00,
2013-06-09 21:24:00,68.0,60.8,30.50,North,0,0.0,-999.9,78,-99.99,,,-99.99,,2013-06-10 01:24:00,
2013-06-09 21:30:00,68.0,60.8,30.50,North,0,0.0,-999.9,78,-99.99,,,-99.99,,2013-06-10 01:30:00,
2013-06-09 21:36:00,68.0,62.6,30.50,North,0,0.0,-999.9,83,-99.99,,,-99.99,,2013-06-10 01:36:00,
2013-06-09 21:42:00,68.0,62.6,30.50,NNW,346,1.2,-999.9,83,-99.99,,,-99.99,,2013-06-10 01:42:00,
2013-06-09 21:48:00,68.0,62.6,30.50,NNW,346,1.2,-999.9,83,-99.99,,,-99.99,,2013-06-10 01:48:00,
2013-06-09 21:54:00,68.0,60.8,30.51,North,2,2.3,-999.9,78,-99.99,,,-99.99,,2013-06-10 01:54:00,
2013-06-09 22:00:00,68.0,60.8,30.51,North,2,2.3,-999.9,78,-99.99,,,-99.99,,2013-06-10 02:00:00,
2013-06-09 22:06:00,68.0,60.8,30.51,NNW,342,3.5,-999.9,78,-99.99,,,-99.99,,2013-06-10 02:06:00,
2013-06-09 22:12:00,68.0,60.8,30.51,North,351,2.3,-999.9,78,-99.99,,,-99.99,,2013-06-10 02:12:00,
2013-06-09 22:18:00,68.0,60.8,30.51,North,351,2.3,-999.9,78,-99.99,,,-99.99,,2013-06-10 02:18:00,
2013-06-09 22:24:00,68.0,60.8,30.52,North,0,0.0,-999.9,78,-99.99,,,-99.99,,2013-06-10 02:24:00,
2013-06-09 22:30:00,68.0,60.8,30.52,North,0,0.0,-999.9,78,-99.99,,,-99.99,,2013-06-10 02:30:00,
2013-06-09 22:36:00,68.0,60.8,30.52,North,0,0.0,-999.9,78,-99.99,,,-99.99,,2013-06-10 02:36:00,
2013-06-09 22:42:00,66.2,60.8,30.52,North,0,0.0,-999.9,83,-99.99,,,-99.99,,2013-06-10 02:42:00,
2013-06-09 22:48:00,66.2,60.8,30.52,North,0,0.0,-999.9,83,-99.99,,,-99.99,,2013-06-10 02:48:00,
2013-06-09 22:54:00,66.2,60.8,30.52,North,0,0.0,-999.9,83,-99.99,,,-99.99,,2013-06-10 02:54:00,
2013-06-09 23:00:00,66.2,60.8,30.52,North,0,0.0,-999.9,83,-99.99,,,-99.99,,2013-06-10 03:00:00,
2013-06-09 23:06:00,64.4,60.8,30.52,North,0,0.0,-999.9,88,-99.99,,,-99.99,,2013-06-10 03:06:00,
2013-06-09 23:12:00,66.2,60.8,30.51,North,357,2.3,-999.9,83,-99.99,,,-99.99,,2013-06-10 03:12:00,
2013-06-09 23:18:00,66.2,60.8,30.51,North,357,2.3,-999.9,83,-99.99,,,-99.99,,2013-06-10 03:18:00,
2013-06-09 23:24:00,66.2,59.0,30.51,North,356,1.2,-999.9,78,-99.99,,,-99.99,,2013-06-10 03:24:00,
2013-06-09 23:30:00,66.2,59.0,30.51,North,356,1.2,-999.9,78,-99.99,,,-99.99,,2013-06-10 03:30:00,
2013-06-09 23:36:00,66.2,59.0,30.51,North,356,1.2,-999.9,78,-99.99,,,-99.99,,2013-06-10 03:36:00,
2013-06-09 23:42:00,66.2,60.8,30.51,North,0,0.0,-999.9,83,-99.99,,,-99.99,,2013-06-10 03:42:00,
2013-06-09 23:48:00,66.2,60.8,30.51,North,0,0.0,-999.9,83,-99.99,,,-99.99,,2013-06-10 03:48:00,
2013-06-09 23:54:00,64.4,59.0,30.51,North,0,0.0,-999.9,83,-99.99,,,-99.99,,2013-06-10 03:54:00,